Regional Weather Roundup
Issued by NWS New Orleans/Baton Rouge, LA

Home | Current Version | Previous Version | Text Only | Print | Product List | Glossary Off
Versions: 1 2 3 4 5 6 7 8 9 10 11 12 13 14 15 16 17 18 19 20 21 22 23 24 25 26 27 28 29 30 31 32 33 34 35 36 37 38 39 40 41 42 43 44 45 46 47 48 49 50

885
ASUS44 KLIX 250905
RWRLIX
NEW ORLEANS REGIONAL WEATHER ROUNDUP
NATIONAL WEATHER SERVICE NEW ORLEANS LA
300 AM CST TUE NOV 25 2014

NOTE: "FAIR" INDICATES FEW OR NO CLOUDS BELOW 12,000 FEET WITH NO
      SIGNIFICANT WEATHER AND/OR OBSTRUCTIONS TO VISIBILITY.
      SKY/WX - SKY CONDITION AND SIGNIFICANT WEATHER.
      TMP - AIR TEMPERATURE.     DP    - DEWPOINT TEMPERATURE.
      RH  - RELATIVE HUMIDITY.   PRES  - PRESSURE.
      HI  - HEAT INDEX.          WCI   - WIND CHILL INDEX.

*  THESE STATIONS ARE NOT NWS OR FAA STATIONS AND ARE NOT UNDER
   NWS QUALITY CONTROL.

LAZ038-040-048-061>063-065>067-069-251000-
SOUTHEAST LOUISIANA

CITY           SKY/WX    TMP DP  RH WIND       PRES   REMARKS
N.O. AUDUBON     N/A     55  42  60 MISG        N/A
N.O. INTL ARPT MOCLDY    55  40  56 N12       30.10R
N.O. LAKEFRONT CLOUDY    56  42  59 N17       30.09S
N.O. DOWNTOWN*   N/A     55  37  50 N10       30.09S
SLIDELL        CLOUDY    52  39  61 N5        30.09R
BATON ROUGE    MOCLDY    49  38  65 NW3       30.12S
BOOTHVILLE     CLOUDY    58  43  57 N14G22    30.06S
BELLE CHASSE   CLOUDY    56  36  47 N10G17    30.07F
BOGALUSA*        N/A     48  41  76 N3        30.12S
NEW ROADS*       N/A     48  45  88 CALM      30.14S
GONZALES*        N/A     50  41  71 CALM      30.12R
HAMMOND*       CLOUDY    48  41  76 CALM      30.13S
HOUMA*         MOCLDY    53  41  63 N7        30.09S
PORT FOURCHON* PTSUNNY   59  41  51 N16G25    30.09S

$$

MSZ070-080>082-251000-
SOUTHERN MISSISSIPPI

CITY           SKY/WX    TMP DP  RH WIND       PRES   REMARKS
MCCOMB         CLOUDY    50  36  58 N5        30.11S
GULFPORT       CLOUDY    55  35  47 N13       30.06F
BILOXI         CLOUDY    55  37  50 N13       30.05F
PASCAGOULA     CLOUDY    54  37  52 N13       30.06S

$$

COASTAL OBSERVATIONS
LAKE AND NEARSHORE STATIONS

STATION/POSITION TIME  TEMP    WIND        PRES    WAVE
                       AIR SEA DIR/SP/G            HT/PER
                 (UTC) (F)     (DEG/KT/KT) (MB)    (FT/S)
PASCAGOULA       0900   55      10/ 13/ 19 1017.3
WAVELAND YACHT   0900   55      10/ 15/ 18 1017.4
GRAND ISLE       0900   59 65   20/ 21/ 25 1018.0
SOUTHWEST PASS   0900   60                 1017.5
NEW CANAL        0900   56 56   20/ 11/ 14 1019.1
SHELL BEACH      0900   56 54  360/ 18/ 21 1018.2

OFFSHORE STATIONS

STATION/POSITION TIME  TEMP    WIND        PRES    WAVE
                       AIR SEA DIR/SP/G            HT/PER
                 (UTC) (F)     (DEG/KT/KT) (MB)    (FT/S)
64 S DAUPHIN ISL 0846   62 70   10/ 27/ 31 1016.5    7/ 6

$$




USA.gov is the U.S. government's official web portal to all federal, state and local government web resources and services.